Regional Weather Roundup
Issued by NWS

Home | Current Version | Previous Version | Graphics & Text | Print | Product List | Glossary On
Versions: 1 2 3 4 5 6 7 8 9 10 11 12 13 14 15 16 17 18 19 20 21 22 23 24 25 26 27 28 29 30 31 32 33 34 35 36 37 38 39 40 41 42 43 44 45 46 47 48 49 50
000
ASUS43 KDMX 022307
RWRIA

WEATHER ROUNDUP FOR IOWA
NATIONAL WEATHER SERVICE DES MOINES IA
600 PM CDT SUN AUG 02 2015

NOTE: "FAIR" INDICATES FEW OR NO CLOUDS BELOW 12,000 FEET WITH NO
SIGNIFICANT WEATHER AND/OR OBSTRUCTIONS TO VISIBILITY.

* - THESE STATIONS ARE NOT NWS STATIONS...THUS NOT UNDER NWS
QUALITY CONTROL.  THEY ALSO DO NOT REPORT WEATHER SUCH
AS PRECIPITATION OR FOG.

IAZ001>003-012>014-020>022-031>034-043>046-030000-
   NORTHWEST IOWA

CITY           SKY/WX    TMP DP  RH WIND       PRES   REMARKS
CARROLL *      SUNNY     86  73  66 NW12      29.79F HX  93
CHEROKEE *     SUNNY     84  73  70 NW5       29.82S HX  91
DENISON *      SUNNY     84  73  70 NW8       29.80R HX  91
LE MARS *      SUNNY     86  70  58 N8        29.83S HX  90
ORANGE CITY *  SUNNY     84  64  51 N7        29.84S HX  86
SHELDON *      SUNNY     82  66  57 NW8       29.82S HX  85
SPENCER        SUNNY     87  62  43 NW8       29.82R HX  87
STORM LAKE *   SUNNY     82  70  65 N9        29.83S HX  86
$$

IAZ055>058-069>071-079>083-090>094-030000-
   SOUTHWEST IOWA

CITY           SKY/WX    TMP DP  RH WIND       PRES   REMARKS
ATLANTIC *     MOSUNNY   88  77  70 NW10G18   29.77F HX 100
AUDUBON *      SUNNY     88  75  66 NW10      29.79F HX  97
CLARINDA *     SUNNY     90  79  70 SW16      29.77F HX 105
COUNCIL BLFS * PTSUNNY   86  77  74 N9        29.80S HX  97
CRESTON *      SUNNY     86  75  70 SW16G25   29.77F HX  95
HARLAN  *      SUNNY     86  81  84 NW8       29.82F HX 102
LAMONI         SUNNY     88  75  65 SW17      29.76F HX  97
RED OAK *      SUNNY     90  79  70 W8        29.78S HX 105
SHENANDOAH *   SUNNY     90  79  70 SW13      29.78F HX 105
$$

IAZ047>049-059>061-072>074-084-030000-
   CENTRAL IOWA

CITY           SKY/WX    TMP DP  RH WIND       PRES   REMARKS
AMES           MOSUNNY   87  74  64 NW14G22   29.75F HX  95
ANKENY *       MOSUNNY   90  73  58 W13G20    29.76R HX  98
CHARITON *     SUNNY     86  73  66 SW12G18   29.77S HX  93
DES MOINES     PTSUNNY   79  65  62 SW23G39   29.77R THUNDER HX  81
GRINNELL*      MOSUNNY   88  73  62 W9        29.76F HX  96
KNOXVILLE *    SUNNY     84  73  70 W9        29.76R HX  91
MARSHALLTOWN   SUNNY     87  75  67 NW10      29.74F HX  96
PELLA *        SUNNY     86  79  79 W6        29.76S HX  99
PERRY *          N/A     88  75  66 NW12G20   29.76S HX  97
$$

IAZ004>006-015-016-023>025-035-036-030000-
   NORTH CENTRAL IOWA

CITY           SKY/WX    TMP DP  RH WIND       PRES   REMARKS
ALGONA *       SUNNY     84  66  54 NW12      29.80S HX  86
CLARION *      SUNNY     84  72  65 NW7       29.78S HX  89
ESTHERVILLE    SUNNY     82  62  50 NW13      29.81R HX  83
FORT DODGE *   SUNNY     84  68  58 NW7       29.79F HX  87
MASON CITY     SUNNY     85  67  54 NW15      29.78R HX  87
FOREST CITY *  SUNNY     81  63  54 NW12      29.78S HX  82
IOWA FALLS *     N/A     86  70  58 NW10      29.77F HX  90
$$

IAZ007>011-017>019-026>030-037>042-050>054-066-030000-
   NORTHEAST IOWA

CITY           SKY/WX    TMP DP  RH WIND       PRES   REMARKS
CEDAR RAPIDS   MOSUNNY   87  77  72 W14G21    29.72S HX  99
CHARLES CITY * SUNNY     82  68  61 W12G18    29.75S HX  85
CLINTON *      SUNNY     88  73  62 SW16G24   29.73S HX  96
DECORAH *      SUNNY     84  64  51 NW12G24   29.71R HX  86
DUBUQUE        SUNNY     87  72  60 W17G28    29.71R HX  93
MONTICELLO *   SUNNY     90  73  58 W16       29.71S HX  98
OELWEIN *      SUNNY     86  72  62 W14G20    29.74S HX  92
WATERLOO       SUNNY     88  69  53 W10G20    29.72S HX  92
$$

IAZ064-065-067-068-078-030000-
   EAST CENTRAL IOWA

CITY           SKY/WX    TMP DP  RH WIND       PRES   REMARKS
DAVENPORT      SUNNY     88  73  61 SW14G23   29.72F HX  95
IOWA CITY      SUNNY     90  75  61 SW10      29.74S HX 100
MT. PLEASANT * SUNNY     90  70  51 SW16      29.75F HX  95
MUSCATINE *    SUNNY     91  73  55 SW13G20   29.73F HX 100
QUAD CITIES    SUNNY     90  73  57 SW15G24   29.72F HX  98
$$

IAZ062-063-075>077-085>089-095>099-030000-
   SOUTHEAST IOWA

CITY           SKY/WX    TMP DP  RH WIND       PRES   REMARKS
BURLINGTON     MOSUNNY   88  75  65 SW16G23   29.76F HX  97
FAIRFIELD *    SUNNY     88  73  62 SW12      29.75F HX  96
FORT MADISON * MOSUNNY   88  75  66 SW10G17   29.78F HX  97
KEOKUK *       MOSUNNY   88  73  62 SW16      29.77F HX  96
OSKALOOSA *      N/A     84  75  74 W5        29.75F HX  92
CENTERVILLE *  SUNNY     86  75  70 SW14      29.78F HX  95
OTTUMWA        SUNNY     86  75  69 SW10      29.73F HX  95
WASHINGTON *   SUNNY     88  75  66 SW12G17   29.76F HX  97
$$

ABBREVIATIONS USED IN REMARKS
   TC - TEMPERATURES IN CELSIUS
  WCI - WIND CHILL INDEX
   HX - HEAT INDEX
  VSB - VISIBILITY
$$




USA.gov is the U.S. government's official web portal to all federal, state and local government web resources and services.